Retour au catalogue

DELTA 1 DEB

ActifHEO
NORAD 5975·DEBRIS·🇺🇸 United States

Lancé Mar 20, 1970 depuis Cape Canaveral Space Force Station

Loading…

Prochains Passages (prochaines 24 heures)

TLE

FraisSource: Space-Track

Époque: Sep 14, 2026, 02:49 UTC

1 05975U 70021C   26257.11784866  .00003586  00000-0  12845-2 0  9993
2 05975  25.3650 181.4775 6513145 101.3073 333.2966  3.27761682375832

Suivez DELTA 1 DEB en temps réel avec AllMySat

Download on the App Store